Quesnel,

5:20 AM PDT on July 23, 2017 (GMT -0700)
Quesnel

Weather History for CYQZ - October, 2011

Change the Weather History Date:

Wednesday, October 26, 2011

  Actual Average Record
Temperature  
Mean Temperature 36 °F -  
Max Temperature 44 °F 36 °F 59 °F (2005)
Min Temperature 28 °F 23 °F 17 °F (2008)
Degree Days  
Heating Degree Days 29    
Moisture  
Dew Point 30 °F    
Average Humidity 70    
Maximum Humidity 100    
Minimum Humidity 53    
Precipitation  
Precipitation 0.00 in - - ()
Sea Level Pressure  
Sea Level Pressure 30.03 in    
Wind  
Wind Speed 7 mph ()    
Max Wind Speed 18 mph    
Max Gust Speed 18 mph    
Visibility 9.0 miles    
Events Rain    
Averages and records for this station are not official NWS values.
T = Trace of Precipitation, MM = Missing Value Source: Averaged Metar Reports

Daily Weather History Graph

Daily Weather History Graph

Search for Another Location

Airport or City:

Trip Planner

Search our weather history database for the weather conditions in past years. The results will help you decide how hot, cold, wet, or windy it might be!

Date:

Astronomy

Oct. 26, 2011 Rise Set
Actual Time 7:56 AM PDT 5:50 PM PDT
Civil Twilight 7:20 AM PDT 6:26 PM PDT
Nautical Twilight 6:40 AM PDT 7:07 PM PDT
Astronomical Twilight 6:00 AM PDT 7:46 PM PDT
Moon 7:59 AM PDT (10/26) 5:25 PM PDT (10/26)
Length of Visible Light 11h 06m
Length of Day
9h 54m
Waning Crescent, 0% of the Moon is Illuminated
Oct 26
Waning Crescent
Oct 26
New
Nov 2
First Quarter
Nov 10
Full
Nov 18
Last Quarter

Hourly Weather History & Observations

Time (PDT) Temp. Windchill Dew Point Humidity Pressure Visibility Wind Dir Wind Speed Gust Speed Precip Events Conditions
12:00 AM 37.4 °F 31.4 °F 26.6 °F 65% 30.22 in 9.0 mi SE 8.1 mph - N/A   Mostly Cloudy
1:00 AM 39.2 °F 34.2 °F 28.4 °F 65% 30.19 in 9.0 mi SE 6.9 mph - N/A   Mostly Cloudy
3:00 AM 37.4 °F 29.3 °F 26.6 °F 65% 30.12 in 9.0 mi SSE 12.7 mph - N/A   Mostly Cloudy
6:00 AM 39.2 °F 32.5 °F 26.6 °F 61% 30.01 in 9.0 mi SSE 10.4 mph - N/A   Overcast
7:00 AM 41.0 °F 35.2 °F 26.6 °F 57% 29.99 in 9.0 mi SSE 9.2 mph - N/A   Overcast
8:00 AM 41.0 °F 34.3 °F 24.8 °F 53% 29.97 in 9.0 mi SSE 11.5 mph 18.4 mph N/A   Overcast
9:00 AM 41.0 °F 33.9 °F 24.8 °F 53% 29.96 in 9.0 mi SE 12.7 mph - N/A   Overcast
10:00 AM 42.8 °F 37.5 °F 26.6 °F 53% 29.94 in 9.0 mi SE 9.2 mph - N/A   Mostly Cloudy
11:00 AM 42.8 °F 36.2 °F 28.4 °F 57% 29.93 in 9.0 mi SE 12.7 mph - N/A   Mostly Cloudy
1:00 PM 42.8 °F 38.0 °F 28.4 °F 57% 29.96 in 9.0 mi Variable 8.1 mph - N/A   Overcast
1:24 PM 42.8 °F 34.5 °F 32.0 °F 66% 29.96 in 9.0 mi South 18.4 mph - N/A   Overcast
2:00 PM 42.8 °F 36.6 °F 33.8 °F 70% 29.96 in 9.0 mi South 11.5 mph 17.3 mph N/A   Overcast
3:00 PM 42.8 °F 37.5 °F 33.8 °F 70% 29.98 in 9.0 mi SE 9.2 mph - N/A   Partly Cloudy
4:00 PM 44.6 °F 40.7 °F 35.6 °F 71% 29.98 in 9.0 mi SSE 6.9 mph - N/A   Scattered Clouds
4:48 PM 44.6 °F 42.2 °F 35.6 °F 71% 30.00 in 9.0 mi SE 4.6 mph - N/A Rain Light Rain
5:00 PM 44.6 °F 41.4 °F 35.6 °F 71% 29.99 in 9.0 mi ESE 5.8 mph - N/A Rain Light Rain
5:11 PM 42.8 °F 40.1 °F 35.6 °F 76% 30.00 in 9.0 mi SSE 4.6 mph - N/A   Mostly Cloudy
6:00 PM 41.0 °F - 33.8 °F 76% 30.02 in 9.0 mi Calm Calm - N/A   Mostly Cloudy
7:00 PM 37.4 °F - 32.0 °F 81% 30.04 in 9.0 mi Calm Calm - N/A   Scattered Clouds
8:00 PM 32.0 °F - 30.2 °F 93% 30.06 in 9.0 mi Variable 2.3 mph - N/A   Scattered Clouds
9:00 PM 28.4 °F 22.2 °F 26.6 °F 93% 30.12 in 9.0 mi Variable 5.8 mph - N/A   Mostly Cloudy
10:00 PM 32.0 °F 27.5 °F 30.2 °F 93% 30.11 in 9.0 mi South 4.6 mph - N/A   Overcast
11:00 PM 28.4 °F - 28.4 °F 100% 30.12 in 9.0 mi Variable 2.3 mph - N/A   Clear